This demonstration page uses our WeatherBlox Daily Observations layout. Learn more.

Left ArrowRight Arrow

34.16533, -84.80231

Hourly Observations for February 20, 2015

Temp ( °F °C ) Dew Point ( °F °C ) Humidity (%) Winds ( mph kmh ) Pressure ( in mb ) Visibility ( mi km ) Precip ( " mm )
12:53 am 00:53 Clear 15 -9.4 2 -16.7 56 56 N 5 7 30.37 1028 10 16 0.00 0.00
1:53 am 01:53 Clear 14 -10 3 -16.1 61 61 N 5 7 30.38 1029 10 16 0.00 0.00
2:53 am 02:53 Cloudy 14 -10 3 -16.1 61 61 Calm 30.39 1029 10 16 0.00 0.00
3:53 am 03:53 Cloudy 14 -10 3 -16.1 61 61 Calm 30.40 1029 10 16 0.00 0.00
4:53 am 04:53 Cloudy 15 -9.4 3 -16.1 59 59 VRB 3 6 30.41 1030 10 16 0.00 0.00
5:53 am 05:53 Cloudy 15 -9.4 -1 -18.3 49 49 N 10 17 30.41 1030 10 16 0.00 0.00
6:53 am 06:53 Cloudy 16 -8.9 -1 -18.3 47 47 NW 3 6 30.42 1030 10 16 0.00 0.00
7:53 am 07:53 Cloudy 16 -8.9 -2 -18.9 45 45 VRB 3 6 30.45 1031 10 16 0.00 0.00
8:53 am 08:53 Cloudy 16 -8.9 -3 -19.4 43 43 N 3 6 30.47 1032 10 16 0.00 0.00
9:53 am 09:53 Cloudy 18 -7.8 -2 -18.9 41 41 Calm 30.47 1032 10 16 0.00 0.00
10:53 am 10:53 Cloudy 20 -6.7 -2 -18.9 38 38 Calm 30.45 1031 10 16 0.00 0.00
11:53 am 11:53 Cloudy 25 -3.9 -2 -18.9 30 30 VRB 3 6 30.45 1031 10 16 0.00 0.00
12:53 pm 12:53 Cloudy 27 -2.8 -5 -20.6 24 24 S 6 9 30.41 1030 10 16 0.00 0.00
1:53 pm 13:53 Cloudy 29 -1.7 -3 -19.4 25 25 VRB 3 6 30.39 1029 10 16 0.00 0.00
2:53 pm 14:53 Cloudy 31 -0.6 -1 -18.3 25 25 E 7 11 30.37 1029 10 16 0.00 0.00
3:53 pm 15:53 Cloudy 31 -0.6 1 -17.2 28 28 ESE 6 9 30.37 1028 10 16 0.00 0.00
4:53 pm 16:53 Cloudy with Light Snow 30 -1.1 13 -10.6 49 49 S 8 13 30.37 1029 4 6 0.00 0.03
5:53 pm 17:53 Cloudy with Light Snow 29 -1.7 17 -8.3 61 61 ESE 7 11 30.37 1028 4 6 0.00 0.03
6:25 pm 18:25 Cloudy 29 -1.7 18 -7.8 63 63 VRB 6 9 30.36 1028 9 14 0.00 0.03
6:42 pm 18:42 Cloudy 29 -1.7 18 -7.8 63 63 E 7 11 30.36 1028 10 16 0.00 0.03
6:53 pm 18:53 Cloudy 29 -1.7 18 -7.8 63 63 ESE 3 6 30.35 1028 9 14 0.00 0.03
7:53 pm 19:53 Cloudy 30 -1.1 19 -7.2 64 64 E 5 7 30.35 1028 10 16 0.00 0.03
8:53 pm 20:53 Cloudy 31 -0.6 18 -7.8 59 59 ESE 3 6 30.36 1028 10 16 0.00 0.00
9:51 pm 21:51 Cloudy 30 -1 18 -8 59 59 E 5 7 30.39 1029 10 16 0.00 0.00
9:53 pm 21:53 Cloudy 31 -0.6 17 -8.3 56 56 E 6 9 30.36 1028 10 16 0.00 0.00
10:03 pm 22:03 Cloudy 31 -0.6 17 -8.3 56 56 ESE 5 7 30.36 1028 10 16 0.00 0.00
10:53 pm 22:53 Cloudy 32 0 16 -8.9 52 52 E 5 7 30.35 1028 10 16 0.00 0.00
11:53 pm 23:53 Cloudy 33 0.6 15 -9.4 47 47 VRB 5 7 30.34 1027 10 16 0.00 0.00

Powered by AerisWeather